Theta_e
321 321 321 321 320 319 319 320 321 320 320 319 320 321 321 321 321 321 319 318 318 318
322 322 322 322 322 321 321 321 320 320 320 320 320 320 320 320 320 321 320 319 319 319
324 324 324 324 323 322 322 322 321 321 321 321 321 321 320 320 321 321 322 322 321 321
323 325 325 325 324 324 323 322 322 322 322 322 321 321 321 321 321 321 321 322 321 320
319 321 322 324 325 325 324 324 323 323 322 323 322 322 321 321 321 321 321 321 320 320
304 313 319 321 323 324 324 324 324 323 322 323 324 323 323 323 322 322 322 321 319 319
300 303 307 316 320 322 323 323 323 323 323 323 324 323 322 322 322 322 322 320 319 318
300 301 304 307 312 317 320 322 323 322 321 322 322 321 321 320 321 321 319 317 317 316
299 300 300 303 306 310 314 317 318 319 320 319 318 309 306 314 319 317 316 311 307 305
295 296 298 299 302 303 306 311 312 315 317 316 316 303 303 302 318 315 313 309 303 297
291 292 293 294 297 300 304 305 307 310 312 313 313 301 301 300 314 310 308 305 302 300
288 288 290 291 293 297 298 297 298 298 301 303 303 298 299 300 302 297 298 299 300 298
287 287 288 290 292 295 294 295 293 293 294 293 297 296 297 300 295 291 291 291 292 292
287 288 288 289 291 291 292 292 291 290 290 291 292 293 295 297 296 293 290 290 290 290
Wind_Speed
20 14 14 16 13 13 13 13 14 14 17 18 17 16 15 12 12 14 13 16 13 10
16 18 16 17 16 13 14 12 14 14 16 18 17 18 17 13 15 14 13 14 14 12
15 17 18 16 17 17 15 15 14 14 16 17 17 18 16 14 14 14 13 12 15 14
15 16 16 17 17 16 14 14 14 14 15 16 17 17 16 17 15 16 15 15 16 16
11 14 15 16 16 15 16 15 17 16 16 15 16 16 17 17 15 16 17 17 14 16
8 10 13 15 16 15 14 15 15 15 16 16 17 16 17 18 17 16 17 16 15 15
10 10 11 13 12 13 13 14 14 15 16 16 16 17 17 16 16 16 16 15 15 14
11 9 9 10 12 13 12 14 16 14 13 14 13 13 16 14 16 16 15 14 14 14
14 12 9 10 12 11 13 13 11 13 15 14 12 17 19 18 16 15 15 13 10 8
16 15 12 11 11 10 9 10 12 13 13 15 15 16 19 21 14 13 13 11 10 6
15 15 14 10 11 12 10 10 10 11 12 13 12 17 19 18 14 10 10 11 12 12
16 17 15 14 12 11 12 8 7 6 11 11 10 15 17 16 7 6 7 7 10 12
16 16 16 14 14 13 11 12 6 8 7 9 9 13 16 15 7 7 6 4 6 9
16 16 15 14 13 11 12 11 9 8 6 7 6 8 15 16 9 9 8 8 8 6
Wind_Direction
221 223 223 222 219 215 219 226 226 213 215 217 215 216 217 218 216 216 219 221 217 216
226 228 227 227 226 226 223 227 222 214 212 215 217 216 214 218 220 215 218 222 222 219
231 228 232 233 231 229 228 222 221 215 214 214 216 217 214 221 224 217 220 219 220 221
252 242 237 234 234 231 229 224 223 219 218 218 217 215 217 221 222 219 225 222 216 219
275 261 252 246 241 232 230 224 223 216 219 221 221 217 217 219 217 221 223 225 216 215
280 275 263 252 246 238 230 226 225 224 221 222 222 219 219 220 218 218 222 220 213 213
291 275 267 269 262 248 233 227 222 221 224 222 222 220 219 218 223 221 217 212 204 205
293 280 277 271 264 262 242 230 223 215 222 226 220 222 218 213 217 218 210 205 201 202
305 300 290 288 281 267 262 250 234 228 221 219 224 214 201 208 216 214 208 195 189 183
316 308 298 292 290 276 259 255 240 228 224 223 221 207 203 207 211 214 204 191 179 171
319 310 306 294 287 284 271 247 254 242 225 222 226 199 201 209 210 204 196 187 185 174
319 309 308 302 288 280 274 256 219 237 232 222 220 199 198 185 195 196 189 179 175 166
311 307 303 301 294 287 274 264 242 239 228 229 222 196 196 181 160 149 143 128 132 159
318 318 312 304 299 292 285 273 258 244 239 232 209 196 189 178 171 163 154 157 155 154